Weather Roundup
Issued by NWS Springfield, MO

Home | Current Version | Previous Version | Text Only | Print | Product List | Glossary On
Versions: 1 2 3 4 5 6 7 8 9 10 11 12 13 14 15 16 17 18 19 20 21 22 23 24 25 26 27 28 29 30 31 32 33 34 35 36 37 38 39 40 41 42 43 44 45 46 47 48 49 50
000
NZUS99 KSGF 270359
HRRSGF

HOURLY WEATHER
NATIONAL WEATHER SERVICE SPRINGFIELD MO
1100 PM CDT TUE AUG 26 2014

......SGF CWA......

CITY           SKY/WX    TMP DP  RH WIND       PRES   REMARKS
SPRINGFIELD    PTCLDY    73  68  84 SE5       30.09S
JOPLIN         MOCLDY    76  69  79 CALM      30.09S
WEST PLAINS    CLEAR     79  68  69 CALM      30.12R
ROLLA          MOCLDY    72  67  84 CALM      30.09R
OSAGE BEACH    MOCLDY    72  66  83 NE3       30.08S

......SURROUNDING SGF CWA......

CITY           SKY/WX    TMP DP  RH WIND       PRES   REMARKS
CHANUTE        MOCLDY    82  64  54 SE8       30.07R
PARSONS        PTCLDY    83  65  54 VRB5      30.08R
COFFEYVILLE    MOCLDY    84  66  54 E9        30.06R
EMPORIA        CLOUDY    76  68  76 E3        30.07F
SILOAM SPRINGS   N/A     75  64  69 CALM      30.11R
HARRISON AR    CLEAR     78  71  79 SE3       30.10S
NEAR YELLVILLE CLEAR     82  66  57 CALM      30.08R

......KANSAS AND MISSOURI......

CITY           SKY/WX    TMP DP  RH WIND       PRES   REMARKS
KANSAS CTY INT CLOUDY    80  71  74 E12       30.09R
DOWNTOWN KC    CLOUDY    81  73  76 E9        30.07R
COLUMBIA       MOCLDY    76  70  82 NE10      30.09R
SEDALIA        CLEAR     76  70  82 CALM      30.09R
ST JOSEPH      PTCLDY    74  72  93 N5        30.09S
ST LOUIS       PTCLDY    83  71  67 CALM      30.08R
SPIRIT OF STL  PTCLDY    76  72  87 SE3       30.07R
KIRKSVILLE     PTCLDY    71  68  90 N6        30.13R
WICHITA        CLOUDY    80  69  69 E6        30.06S
TOPEKA         MOCLDY    79  73  82 E5        30.07S
OLATHE         MOCLDY    81  73  76 E7        30.08R

......TENNESSEE......

CITY           SKY/WX    TMP DP  RH WIND       PRES   REMARKS
MEMPHIS        CLEAR     82  71  69 E6        30.06S
NASHVILLE      PTCLDY    76  70  82 CALM      30.09S

......ARKANSAS.......

CITY           SKY/WX    TMP DP  RH WIND       PRES   REMARKS
FAYETTEVILLE   CLEAR     75  70  84 S3        30.10R
FT SMITH       CLEAR     83  72  69 E5        30.04R
LITTLE ROCK    MOCLDY    81  72  74 CALM      30.05R

......OKLAHOMA.......

CITY           SKY/WX    TMP DP  RH WIND       PRES   REMARKS
TULSA          PTCLDY    85  69  58 SE5       30.03R
PONCA CITY     PTCLDY    82  67  60 SE7       30.05R
MCALESTER      CLEAR     82  71  69 SE6       30.06R
OKLAHOMA CITY  PTCLDY    83  65  54 SE9       30.06R

......IOWA............

CITY           SKY/WX    TMP DP  RH WIND       PRES   REMARKS
DES MOINES     MOCLDY    73  64  73 E5        30.13R
QUAD CITIES    CLEAR     73  64  73 NE5       30.10S

......ILLINOIS........

CITY           SKY/WX    TMP DP  RH WIND       PRES   REMARKS
QUINCY         CLEAR     74  70  87 NE7       30.09S
CHICAGO        MOCLDY    72  64  76 N6        30.11S



USA.gov is the U.S. government's official web portal to all federal, state and local government web resources and services.